Temperature
8 8 7 7 8 8 7 8 9 9 9 9 9 8 7 6 5 4 4 4 4 4 4 4 4 5 5 4 5 5 5 5 5 5 5 6 6 6 6 6 6 6 6 6
7 8 7 7 8 8 8 8 8 9 9 10 8 7 7 6 5 5 4 4 4 4 4 4 4 4 4 4 4 4 5 5 5 5 5 5 5 5 5 5 5 5 5 5
8 8 8 9 9 8 8 8 9 9 10 9 8 7 7 6 5 5 4 4 4 4 4 4 4 4 4 4 4 4 4 4 4 5 5 5 5 4 5 5 5 5 4 4
7 8 8 10 8 8 8 9 8 9 9 8 8 7 6 5 5 5 4 4 4 4 4 4 4 4 4 4 4 4 4 4 4 4 4 4 4 4 4 4 4 4 4 4
7 8 9 10 8 7 8 9 9 8 8 7 6 6 6 6 6 5 5 5 4 4 4 4 4 4 4 4 4 4 4 4 4 3 3 3 3 3 3 3 3 3 3 3
7 7 9 11 8 7 8 10 9 8 8 7 6 9 9 6 6 6 5 5 5 4 4 4 4 4 4 4 4 4 3 3 3 3 3 3 3 3 2 2 2 2 2 2
7 7 9 9 6 7 9 11 8 7 7 6 7 8 7 7 6 6 5 5 5 4 4 4 4 4 4 4 3 3 3 3 3 2 2 2 2 2 1 1 1 1 1 1
7 7 9 7 6 8 10 8 7 6 6 6 6 6 6 6 6 6 5 5 5 4 4 4 4 4 3 3 3 3 2 2 2 2 2 1 1 1 1 1 1 0 0 0
7 9 8 6 7 7 7 6 7 6 6 6 6 6 6 6 6 6 5 5 4 4 4 4 4 3 3 3 3 2 2 2 2 1 1 1 0 0 0 -0 -0 -0 -1 -1
6 7 7 6 6 6 6 6 7 7 6 6 6 6 6 6 6 5 5 5 4 4 4 4 4 3 3 2 2 2 2 1 1 1 1 0 0 -0 -0 -1 -1 -1 -2 -2
5 7 6 6 6 7 7 7 6 7 6 6 6 6 6 6 6 5 5 5 4 4 4 3 3 3 3 2 2 2 1 1 1 0 0 0 -0 -1 -1 -1 -2 -2 -2 -3
8 8 7 8 7 7 6 6 6 6 6 6 6 6 6 6 6 5 5 5 4 4 4 3 3 3 2 2 2 1 1 1 0 0 -0 -0 -1 -1 -1 -2 -2 -2 -3 -3
7 6 6 6 6 6 6 6 6 6 6 6 6 6 6 6 5 5 5 4 4 4 3 3 3 2 2 2 1 1 1 0 0 -0 -1 -1 -1 -1 -2 -2 -2 -3 -3 -3
5 5 4 5 5 6 5 5 5 5 5 5 5 5 5 5 5 5 5 4 4 3 3 3 2 2 2 1 1 1 0 -0 -0 -1 -1 -1 -2 -2 -2 -3 -3 -3 -3 -3
5 4 4 5 5 5 5 4 4 5 5 5 5 5 5 5 5 5 4 4 4 3 3 2 2 2 2 1 1 1 0 -0 -1 -1 -1 -2 -2 -2 -3 -3 -3 -4 -4 -4
4 4 4 4 4 4 4 4 4 4 4 5 5 5 5 4 4 4 4 4 3 3 3 3 2 2 1 1 1 0 -0 -0 -1 -1 -2 -2 -2 -3 -3 -4 -4 -4 -4 -5
3 3 4 4 4 4 4 4 4 4 4 4 4 4 4 4 4 4 4 3 3 3 3 2 2 2 1 1 0 -0 -0 -1 -1 -2 -2 -2 -3 -3 -4 -4 -5 -5 -5 -5
4 4 4 4 4 4 4 4 4 4 4 4 4 4 3 4 4 4 3 3 3 2 2 2 2 1 1 0 -0 -0 -1 -1 -2 -2 -2 -3 -3 -4 -4 -5 -5 -5 -5 -6
4 4 4 4 4 4 4 4 4 4 4 3 3 3 3 3 3 3 3 2 2 2 2 2 1 1 0 0 -0 -1 -1 -2 -2 -2 -3 -3 -4 -4 -5 -5 -5 -6 -6 -6
4 4 4 4 4 4 4 4 4 4 3 3 3 3 3 3 2 2 2 2 2 2 2 1 1 0 -0 -0 -1 -1 -2 -2 -2 -3 -3 -4 -4 -5 -5 -5 -6 -6 -6 -7
4 4 4 4 4 4 4 4 4 4 3 3 3 3 2 2 2 2 1 1 2 1 1 1 0 -0 -1 -1 -1 -2 -2 -2 -3 -3 -4 -4 -5 -5 -5 -6 -6 -6 -7 -7
4 4 4 4 4 4 4 3 3 3 3 3 2 2 2 2 2 1 1 1 1 1 0 0 -0 -1 -1 -1 -2 -2 -2 -3 -3 -4 -4 -5 -5 -5 -6 -6 -6 -7 -7 -7
4 4 4 3 3 3 3 3 3 3 3 2 2 2 1 1 1 1 1 1 0 -0 -0 -1 -1 -1 -2 -2 -2 -3 -3 -3 -4 -4 -5 -5 -5 -6 -6 -6 -7 -7 -7 -7
4 4 3 3 3 3 3 3 2 2 2 2 2 1 1 1 1 1 0 0 -0 -1 -1 -1 -1 -2 -2 -2 -3 -3 -3 -4 -4 -5 -5 -5 -6 -6 -6 -7 -7 -7 -8 -8
4 3 3 3 3 3 2 2 2 2 2 2 2 1 1 1 0 0 -0 -0 -1 -1 -1 -2 -2 -2 -3 -3 -3 -4 -4 -4 -4 -5 -5 -6 -6 -6 -7 -7 -7 -8 -8 -8
3 3 3 3 3 2 2 2 1 1 1 1 1 1 1 0 -0 -0 -1 -1 -1 -2 -2 -2 -3 -3 -3 -3 -4 -4 -4 -5 -5 -5 -6 -6 -6 -7 -7 -7 -7 -8 -8 -8
3 3 3 2 2 2 2 1 1 1 1 1 0 0 0 -0 -1 -1 -1 -2 -2 -2 -3 -3 -3 -3 -4 -4 -4 -4 -5 -5 -5 -6 -6 -7 -7 -7 -7 -7 -8 -8 -8 -8
Wind_Speed
7 8 7 8 8 6 6 6 4 4 5 7 6 5 4 2 2 1 2 3 3 4 4 5 5 6 5 5 5 4 5 5 5 5 4 4 4 4 3 3 3 3 2 2
5 4 6 8 9 8 8 7 8 8 8 5 4 3 4 3 3 3 2 2 2 3 3 4 4 5 5 5 5 4 5 5 5 5 5 5 4 4 4 4 4 4 4 3
3 5 5 6 6 7 5 6 7 7 5 3 4 5 6 5 5 5 4 3 2 2 2 2 3 3 4 4 4 5 6 6 6 6 6 6 5 4 4 4 5 5 4 5
4 5 4 0 1 4 6 7 9 8 6 6 6 5 5 6 7 6 5 4 3 2 1 1 2 2 3 3 4 5 6 6 6 6 6 6 6 6 6 5 4 4 5 5
3 4 6 4 3 4 4 5 6 8 7 5 2 2 4 6 6 6 5 4 3 3 2 1 1 1 2 3 4 4 5 5 6 6 6 6 6 6 6 5 5 5 5 6
3 4 5 0 3 2 2 4 2 5 5 5 5 4 4 6 6 6 5 4 3 3 2 1 0 0 1 2 3 4 4 4 5 5 5 5 5 5 5 5 5 5 5 5
7 6 7 2 3 4 4 1 1 4 5 7 8 5 1 4 6 6 5 5 4 4 3 2 1 1 1 1 2 2 2 3 4 4 4 4 5 5 5 5 5 5 5 5
6 7 7 5 7 6 3 1 2 4 5 7 7 4 3 4 5 6 6 5 5 5 4 3 2 2 2 1 1 1 1 2 3 3 4 3 4 4 4 4 5 5 5 6
8 7 1 5 7 4 2 4 4 4 5 6 7 7 6 6 6 6 6 6 6 5 4 3 3 4 3 2 1 0 1 1 2 3 3 3 3 4 4 4 4 4 5 5
8 11 10 10 11 10 8 8 7 6 6 6 8 7 7 7 6 6 7 6 6 6 5 5 5 5 4 3 2 1 1 0 1 2 3 3 3 3 3 3 4 4 5 5
10 10 9 9 10 9 8 8 7 7 6 7 8 8 8 7 7 7 6 6 6 7 7 6 6 5 5 4 3 3 2 1 1 1 2 2 3 3 3 3 4 5 4 5
11 8 7 5 4 5 7 8 7 7 7 7 8 9 8 7 7 7 7 7 7 8 7 7 6 6 5 5 4 4 3 2 1 1 1 2 2 3 3 4 5 6 6 6
11 6 7 8 7 7 7 8 7 8 8 8 8 8 8 7 6 6 7 8 9 9 8 7 7 7 6 6 5 5 4 3 2 1 1 2 2 3 4 4 4 5 6 8
13 9 10 10 9 8 7 7 7 7 7 8 7 7 7 7 6 7 8 9 8 8 8 8 7 7 6 6 6 6 5 4 3 2 2 2 2 3 3 4 5 5 6 8
14 13 12 8 8 8 7 6 7 8 7 7 6 7 7 7 8 8 7 7 7 7 8 8 8 8 7 7 7 6 5 3 3 3 2 2 3 3 3 4 5 5 5 6
9 10 11 12 12 10 8 8 9 9 8 7 7 7 8 8 8 7 6 7 7 9 9 8 9 7 7 7 7 6 5 5 4 3 3 2 3 3 3 4 5 5 5 6
10 10 10 10 11 11 10 9 9 9 8 8 8 7 7 6 6 7 7 8 8 8 8 8 8 7 7 8 7 5 5 5 5 4 3 3 3 3 4 4 4 5 5 6
14 13 11 10 10 10 9 9 8 8 8 8 7 6 7 8 9 8 7 6 6 6 7 7 7 7 7 8 7 5 5 4 4 4 4 4 4 4 4 4 5 5 5 6
12 12 11 11 10 9 9 8 8 8 7 7 7 8 8 9 8 7 6 6 7 8 7 7 8 8 7 8 7 5 5 5 5 4 4 5 4 4 4 4 4 5 5 5
9 9 9 8 7 7 8 7 6 6 6 6 7 7 8 8 7 6 7 8 8 6 5 6 8 7 7 7 8 5 6 6 5 5 4 4 4 4 4 4 4 4 5 5
8 8 8 7 7 7 7 6 6 6 6 6 7 8 8 7 6 6 7 7 6 5 6 8 7 6 6 7 8 6 6 6 5 5 5 4 4 4 4 4 4 4 5 5
7 7 7 7 6 6 5 5 6 6 6 6 7 7 6 6 6 7 8 6 5 7 6 6 6 7 8 8 6 6 6 6 5 5 5 5 4 4 4 4 4 4 5 5
6 6 7 7 6 5 4 5 6 6 7 7 7 8 8 7 6 6 6 5 5 8 6 5 7 9 10 7 5 6 6 6 5 5 5 5 5 5 4 5 5 5 5 5
6 6 6 5 4 4 5 5 5 5 6 6 6 7 7 5 5 5 4 6 8 8 6 7 10 10 9 6 5 6 6 6 5 5 5 5 4 4 4 5 5 5 5 6
6 6 5 6 6 6 6 5 4 5 5 4 5 5 5 5 5 4 4 6 8 8 5 7 10 10 7 5 6 6 6 5 5 5 5 5 5 5 5 5 5 5 5 5
7 7 7 7 6 5 5 4 4 4 4 4 4 4 4 3 4 4 4 5 7 7 5 5 6 7 6 5 6 6 5 5 5 5 5 5 5 5 5 5 6 5 5 5
6 6 5 5 6 6 6 6 6 6 5 5 4 4 4 4 4 5 5 5 5 5 5 5 5 5 5 5 5 5 5 5 5 5 5 5 5 5 5 5 5 5 5 5
Wind_Direction
269 272 266 265 266 248 230 241 245 247 251 258 251 247 253 257 264 290 340 359 2 4 5 8 14 17 23 25 28 34 42 43 41 41 43 47 42 34 30 31 32 31 33 24
278 261 265 265 262 247 241 239 241 254 263 264 234 220 226 231 235 250 273 304 330 348 359 5 9 10 16 21 25 34 42 38 32 36 40 38 34 30 30 30 28 27 25 22
288 314 290 266 247 219 218 221 222 235 245 211 218 220 227 231 229 234 243 251 270 299 331 350 356 0 13 18 29 40 44 38 33 35 37 31 28 28 26 23 21 19 16 16
299 312 258 259 112 214 232 247 235 247 253 227 231 236 235 229 225 228 229 233 241 257 282 326 357 11 19 27 36 40 39 35 31 31 31 26 26 27 22 18 15 12 9 5
279 289 280 275 217 202 226 265 236 237 244 230 216 232 232 211 215 220 221 227 232 234 236 245 356 21 42 42 41 42 36 29 23 22 23 23 22 20 15 15 14 9 3 3
243 264 257 246 137 166 217 260 212 222 226 200 184 224 227 188 202 211 211 213 215 211 209 208 204 100 78 52 37 28 20 18 19 19 21 20 15 10 7 7 6 1 2 1
231 247 266 250 157 163 217 311 143 220 222 199 209 238 238 178 196 202 204 204 200 197 202 211 198 166 132 66 19 359 2 15 20 18 16 13 9 6 1 1 360 358 357 355
206 224 249 161 161 200 255 8 243 240 229 219 230 241 233 212 203 200 199 199 196 195 203 204 191 183 189 220 290 354 19 23 20 14 12 5 2 358 356 356 354 352 351 350
216 233 283 185 216 245 269 260 260 252 242 227 234 238 233 226 216 210 206 202 201 200 200 202 201 202 211 218 206 174 50 24 12 8 3 356 354 352 350 353 351 346 344 343
254 257 252 249 250 252 248 249 257 254 249 233 238 239 235 227 222 216 211 206 202 202 206 210 207 210 218 208 193 197 204 355 358 352 350 351 350 347 344 344 340 337 336 335
249 263 272 256 239 244 246 247 250 251 244 236 235 238 235 230 225 219 212 208 205 208 213 215 207 208 208 201 195 202 208 220 285 321 330 336 338 335 330 332 329 326 326 325
242 236 225 245 233 242 248 248 247 250 252 242 232 235 235 233 228 220 213 207 208 212 216 214 209 210 206 201 202 206 211 224 241 277 308 316 318 318 322 319 334 332 333 329
245 248 246 267 273 258 256 258 257 250 246 248 242 234 232 234 227 219 216 212 213 214 214 212 210 212 206 198 201 209 219 227 233 247 273 294 304 309 314 315 315 326 338 338
239 246 259 254 254 251 251 259 260 257 251 245 242 233 226 227 225 220 220 218 216 214 213 211 212 214 206 198 200 208 218 223 228 237 252 272 284 293 299 308 315 319 329 334
232 229 242 257 260 258 255 252 249 250 250 245 236 229 222 222 226 228 225 215 210 213 214 212 214 215 199 195 200 206 212 219 225 235 245 262 275 286 293 299 303 311 319 327
225 227 239 249 253 253 249 242 242 246 244 242 238 234 232 230 231 229 218 202 203 214 215 213 217 213 194 192 198 205 212 214 221 230 237 250 261 271 280 289 296 303 311 321
224 231 230 238 243 244 241 240 241 245 244 242 241 240 234 228 227 225 220 214 215 220 217 214 215 201 191 193 197 205 207 207 211 226 232 240 250 259 269 278 287 295 301 313
229 235 232 238 242 244 244 243 243 244 244 245 244 234 226 222 225 227 223 214 214 222 220 214 205 192 191 193 198 204 206 208 212 223 231 236 247 255 263 270 280 289 300 307
226 232 235 236 236 236 238 239 240 242 244 239 232 231 231 232 232 230 216 207 211 222 221 204 191 190 194 194 192 200 204 208 214 223 231 237 244 250 257 268 277 286 294 299
222 225 227 228 226 226 233 237 239 242 239 232 231 234 236 234 228 219 212 219 224 224 200 189 189 193 193 192 190 198 203 209 214 220 225 232 241 249 256 265 275 282 285 289
217 216 215 216 223 228 232 234 235 240 239 226 225 231 236 235 222 212 213 230 231 205 192 186 191 193 191 189 189 199 203 209 213 217 223 230 238 246 252 260 268 274 279 284
210 209 211 213 219 232 235 231 233 235 234 229 229 230 231 230 223 222 226 231 220 188 188 192 194 194 190 186 193 199 204 209 214 217 223 228 234 241 248 256 263 268 273 280
210 209 210 212 218 229 238 234 229 228 228 227 227 225 224 225 219 219 233 217 199 192 193 198 194 191 188 189 194 199 204 209 214 218 223 227 231 236 244 252 258 263 268 274
211 212 213 208 199 216 237 239 225 226 229 233 230 225 222 223 227 226 230 197 191 192 200 196 192 192 190 192 195 201 206 209 213 219 223 225 228 235 242 247 254 260 263 269
209 208 205 201 211 225 232 233 232 233 231 235 235 227 220 221 224 218 205 196 192 189 195 195 194 194 193 194 197 203 207 210 212 216 220 225 230 236 241 245 249 257 261 264
212 215 218 219 223 226 221 218 227 232 226 234 241 228 217 212 207 202 194 193 192 191 192 190 191 194 197 197 201 204 207 212 217 220 223 229 233 237 241 245 252 255 259 264
221 223 224 233 233 224 218 216 222 229 222 221 234 224 206 201 198 193 189 188 188 191 192 190 191 195 196 198 203 206 208 211 215 220 223 228 232 236 241 246 251 255 259 262
Height
1491 1489 1489 1487 1484 1483 1484 1479 1476 1471 1471 1469 1471 1472 1473 1473 1473 1472 1470 1468 1466 1464 1462 1460 1458 1456 1454 1452 1451 1449 1448 1447 1446 1445 1445 1444 1444 1444 1443 1442 1442 1442 1442 1442
1490 1487 1487 1484 1480 1479 1479 1478 1475 1473 1471 1468 1470 1472 1472 1472 1472 1471 1470 1468 1467 1465 1463 1460 1458 1457 1455 1453 1452 1450 1449 1447 1446 1445 1445 1444 1443 1443 1442 1441 1440 1440 1439 1439
1485 1485 1483 1474 1471 1473 1473 1472 1471 1468 1466 1468 1469 1470 1470 1470 1470 1470 1469 1468 1467 1465 1463 1461 1460 1458 1456 1454 1453 1451 1450 1448 1447 1445 1444 1443 1442 1442 1441 1440 1439 1439 1438 1437
1488 1484 1480 1468 1472 1471 1470 1468 1468 1467 1466 1467 1468 1469 1469 1469 1469 1468 1468 1467 1466 1464 1463 1462 1460 1459 1457 1455 1454 1452 1450 1448 1447 1445 1444 1443 1442 1441 1440 1439 1438 1437 1436 1435
1490 1482 1471 1467 1470 1471 1469 1465 1464 1465 1465 1467 1467 1468 1467 1466 1466 1467 1466 1466 1465 1464 1463 1461 1460 1459 1457 1456 1454 1452 1451 1449 1448 1446 1445 1443 1442 1441 1440 1438 1437 1436 1435 1433
1489 1484 1473 1463 1468 1470 1471 1462 1462 1463 1463 1465 1466 1464 1462 1463 1464 1464 1465 1464 1464 1463 1462 1461 1460 1459 1458 1456 1455 1453 1452 1450 1449 1447 1445 1444 1442 1441 1439 1438 1436 1435 1433 1432
1486 1481 1466 1464 1468 1470 1466 1458 1461 1461 1461 1462 1462 1461 1462 1461 1461 1462 1462 1462 1462 1462 1461 1460 1460 1459 1457 1456 1455 1454 1452 1451 1450 1448 1446 1444 1442 1440 1438 1437 1435 1433 1431 1430
1481 1479 1467 1463 1465 1464 1459 1459 1459 1459 1459 1459 1459 1459 1459 1459 1459 1460 1460 1460 1460 1460 1459 1459 1458 1457 1457 1455 1455 1453 1452 1451 1449 1448 1446 1444 1442 1440 1438 1436 1434 1432 1430 1428
1471 1463 1459 1460 1459 1458 1458 1458 1457 1457 1456 1457 1456 1456 1456 1456 1457 1457 1457 1457 1457 1457 1457 1457 1456 1456 1455 1455 1454 1453 1452 1450 1449 1447 1445 1444 1441 1439 1437 1435 1433 1431 1429 1427
1467 1457 1456 1456 1455 1455 1454 1454 1454 1454 1453 1453 1453 1453 1453 1453 1453 1454 1454 1454 1454 1454 1454 1454 1454 1453 1453 1453 1452 1451 1450 1449 1448 1446 1444 1443 1440 1438 1436 1434 1432 1430 1428 1425
1460 1453 1452 1449 1449 1449 1449 1449 1450 1450 1449 1449 1450 1449 1450 1449 1450 1450 1450 1450 1451 1451 1451 1451 1451 1451 1450 1450 1450 1449 1448 1447 1446 1445 1443 1441 1439 1437 1435 1433 1431 1429 1427 1424
1448 1445 1447 1445 1445 1446 1445 1445 1445 1445 1445 1445 1445 1445 1445 1445 1446 1446 1446 1446 1446 1447 1447 1447 1447 1447 1447 1447 1447 1446 1445 1444 1443 1442 1441 1439 1437 1435 1433 1431 1429 1427 1425 1422
1442 1441 1442 1441 1441 1441 1441 1440 1440 1440 1440 1440 1440 1440 1441 1441 1441 1441 1441 1441 1442 1442 1442 1443 1443 1443 1443 1443 1443 1443 1443 1442 1441 1440 1438 1436 1435 1433 1431 1429 1427 1425 1422 1419
1437 1438 1437 1436 1436 1436 1436 1435 1435 1435 1435 1435 1435 1435 1435 1436 1436 1436 1436 1437 1437 1437 1438 1438 1438 1439 1439 1439 1439 1439 1439 1438 1437 1436 1435 1434 1432 1430 1428 1426 1423 1421 1419 1416
1430 1431 1430 1430 1430 1430 1430 1429 1429 1428 1429 1429 1429 1430 1430 1430 1431 1431 1432 1432 1432 1432 1433 1433 1434 1434 1435 1435 1435 1435 1434 1434 1433 1433 1432 1430 1429 1427 1425 1423 1420 1418 1415 1413
1422 1423 1424 1424 1424 1424 1424 1423 1423 1423 1423 1424 1424 1424 1425 1425 1426 1426 1426 1426 1427 1427 1427 1428 1429 1429 1430 1430 1430 1430 1430 1430 1429 1429 1427 1426 1425 1423 1422 1420 1417 1415 1412 1410
1416 1416 1417 1417 1417 1417 1418 1418 1417 1417 1418 1418 1419 1419 1419 1420 1420 1420 1421 1421 1421 1422 1422 1423 1424 1424 1425 1425 1425 1425 1425 1425 1425 1424 1423 1422 1421 1419 1418 1416 1414 1411 1409 1407
1407 1409 1410 1411 1411 1412 1412 1412 1412 1413 1413 1413 1413 1413 1414 1414 1414 1415 1415 1416 1416 1416 1416 1417 1418 1419 1419 1420 1420 1420 1421 1420 1420 1419 1418 1417 1416 1415 1413 1412 1410 1408 1405 1403
1400 1402 1403 1405 1406 1406 1407 1407 1407 1407 1408 1408 1408 1408 1408 1409 1409 1410 1410 1410 1410 1410 1411 1412 1413 1413 1414 1415 1415 1415 1415 1415 1415 1414 1413 1412 1411 1410 1409 1407 1406 1404 1402 1399
1394 1396 1397 1399 1400 1401 1402 1402 1403 1402 1402 1403 1403 1403 1403 1403 1404 1404 1404 1404 1404 1405 1406 1407 1407 1408 1409 1409 1410 1410 1410 1410 1410 1409 1408 1407 1406 1405 1404 1403 1401 1400 1398 1396
1390 1391 1392 1394 1395 1397 1398 1398 1398 1397 1398 1398 1398 1398 1398 1398 1398 1398 1398 1398 1399 1400 1401 1401 1402 1403 1403 1404 1404 1404 1405 1405 1404 1404 1403 1402 1401 1400 1399 1398 1397 1395 1394 1392
1386 1387 1389 1390 1391 1392 1393 1393 1393 1393 1392 1392 1392 1392 1392 1392 1393 1393 1393 1394 1394 1395 1395 1396 1396 1397 1398 1399 1399 1399 1399 1399 1399 1399 1398 1397 1396 1396 1394 1393 1392 1391 1390 1388
1383 1384 1385 1386 1387 1388 1388 1388 1388 1388 1388 1387 1387 1387 1387 1387 1387 1387 1387 1388 1389 1389 1390 1390 1391 1392 1393 1393 1394 1394 1394 1394 1394 1393 1393 1392 1392 1391 1390 1389 1388 1386 1385 1384
1380 1381 1382 1383 1383 1384 1384 1384 1384 1383 1383 1383 1382 1382 1382 1382 1382 1382 1383 1383 1384 1384 1385 1385 1386 1387 1387 1388 1388 1388 1389 1389 1389 1388 1388 1388 1387 1386 1385 1384 1383 1382 1381 1379
1376 1377 1378 1378 1379 1379 1379 1379 1379 1378 1378 1378 1377 1377 1377 1377 1377 1377 1378 1378 1379 1379 1380 1380 1381 1382 1382 1382 1382 1383 1383 1383 1383 1383 1383 1383 1382 1381 1381 1380 1379 1378 1377 1375
1372 1372 1373 1373 1374 1374 1374 1374 1373 1373 1372 1372 1372 1372 1372 1372 1372 1372 1373 1373 1374 1374 1375 1376 1376 1377 1377 1377 1377 1377 1378 1378 1378 1378 1378 1378 1377 1377 1376 1375 1375 1373 1372 1371
1366 1366 1367 1367 1368 1368 1368 1368 1367 1367 1367 1366 1366 1366 1367 1367 1367 1367 1368 1368 1369 1369 1370 1371 1371 1372 1372 1372 1372 1373 1373 1373 1373 1373 1373 1373 1373 1372 1372 1371 1370 1369 1368 1367